Погода в Баде-Рагаце

Швейцария     47°00′14″N   9°30′02″E
темп.,
°C
ветер,
м/с
пор.,
м/с
влажн.,
%
обл.,
%
осадки,
мм/ч
давл.,
гПа
погр.,
м
16 июня, ср
ср1623:00+12ююв1177100 0.0 102011
02:00+11ю3380100 0.0 102028
05:00+11ю3381100 0.0 101930
08:00+15ю2367100 0.0 1018154
11:00+21св0040100 0.0 10161036
14:00+23с2134100 0.0 10141776
17:00+22с3245100 0.0 1014912
20:00+18с1174100 0.0 101511
17 июня, чт
чт1723:00+14ю3483100 0.0 101652
02:00+12ю459056 0.0 101872
05:00+12ю3590100 0.0 101873
08:00+16ю34745 0.0 1018246
11:00+22ю2250100 0.0 10161027
14:00+26с013981 0.0 10141951
17:00+25ссз3241100 0.0 10131662
20:00+19вюв117493 0.4 101513
18 июня, пт
пт1823:00+14ююз458724 0.1 101785
02:00+13ю45895 0.1 101880
05:00+12ю348938 0.0 101851
08:00+16ю347442 0.0 1017244
11:00+22ю235152 0.0 10151159
14:00+25зюз2242100 0.3 10142439
17:00+21с126268 1.2 1014579
20:00+16в2187100 4.5 101723
19 июня, сб
сб1923:00+15ю2287100 0.7 101921
02:00+12ю339132 0.7 102042
05:00+12ю339099 0.0 102135
08:00+16ю2280100 0.0 1020129
11:00+21св115654 0.0 1018908
14:00+25с1144100 0.0 10161573
17:00+25с3244100 0.0 10151493
20:00+20с2278100 0.1 101629
20 июня, вс
вс2023:00+16ю338538 0.1 101836
02:00+14ю4580100 0.1 101773
05:00+14ю468258 0.0 101688
08:00+18ю577334 0.0 1015253
11:00+25ю464142 0.0 10111104
14:00+27ююз5934100 0.0 10102506
17:00+25ююз574589 0.0 10111554
20:00+21юз236799 0.0 1011105